Flag for Canada Weather past 2 weeks in Sherbrooke, Quebec, Canada

Now
66 °F

Scattered clouds.


Feels Like: 66 °F
Forecast: 48 / 71 °F
Wind: 14 mph from West

Location: Sherbrooke

Current Time: May 24, 2015 at 11:34:14 AM

Latest Report: May 24, 2015 at 11:00 AM


Visibility: 9 mi

Pressure: 30.12 "Hg

Humidity: 40%

Dew point: 41 °F

Location of SherbrookeLocation

Historic Weather in Sherbrooke — Graph

°F

Sherbrooke temperature yesterday

Maximum temperature yesterday: 55 °F (at 5:00 PM)
Minimum temperature yesterday: 30 °F (at 1:00 AM)
Average temperature yesterday: 43 °F

Past Weeks' High & Low Weather Summary

 TemperatureHumidityPressure
High79 °F (May 18, 3:00 PM)100% (May 10, 10:00 PM)30.37 "Hg (May 10, 10:00 PM)
Low30 °F (May 15, 5:00 AM)22% (May 15, 1:00 PM)29.57 "Hg (May 12, 3:00 PM)
Average55 °F62%30.01 "Hg
* Reported May 9 10:00 AM — May 24 10:00 AM, Sherbrooke, Weather by CustomWeather, © 2015

Note: Actual official high and low records may vary slightly from our data, if they occured in-between our weather recording intervals... More about our weather records

Advertising

Sherbrooke weather history for previous 24 hours

 ConditionsComfort  
Time TempWeatherWind HumidityBarometerVisibility
10:00 AM
Sun, May 24
63 °FPartly sunny.16 mph45%30.12 "Hg9 mi
9:00 AM61 °FSunny.18 mph45%30.12 "Hg9 mi
8:00 AM57 °FPassing clouds.13 mph51%30.11 "Hg9 mi
7:00 AM52 °FSunny.5 mph62%30.11 "Hg9 mi
6:00 AM48 °FPassing clouds.7 mph71%30.11 "Hg9 mi
5:00 AM46 °FLight rain. Overcast.7 mph71%30.10 "Hg9 mi
4:00 AM48 °FLight rain. Passing clouds.3 mph50%30.07 "Hg9 mi
3:55 AM46 °FLight rain. Passing clouds.5 mph53%30.08 "Hg9 mi
3:00 AM48 °FPartly cloudy.7 mph46%30.08 "Hg9 mi
2:00 AM43 °FPassing clouds.No wind66%30.10 "Hg9 mi
1:00 AM46 °FPassing clouds.5 mph50%30.11 "Hg9 mi
12:00 AM46 °FClear.5 mph50%30.14 "Hg9 mi
11:00 PM
Sat, May 23
48 °FPassing clouds.3 mph46%30.16 "Hg9 mi
10:00 PM50 °FMostly cloudy.8 mph43%30.17 "Hg9 mi
9:00 PM50 °FPassing clouds.5 mph43%30.17 "Hg9 mi
8:00 PM54 °FPartly sunny.10 mph33%30.17 "Hg9 mi
7:00 PM54 °FSunny.12 mph30%30.18 "Hg9 mi
6:00 PM55 °FSunny.17 mph28%30.19 "Hg9 mi
5:00 PM55 °FSunny.18 mph28%30.21 "Hg9 mi
4:00 PM54 °FSunny.15 mph35%30.23 "Hg9 mi
3:00 PM54 °FPassing clouds.14 mph33%30.24 "Hg9 mi
2:00 PM52 °FPassing clouds.16 mph35%30.26 "Hg9 mi
1:00 PM48 °FSunny.13 mph37%30.27 "Hg9 mi
12:00 PM48 °FSunny.14 mph34%30.27 "Hg9 mi
11:00 AM45 °FScattered clouds.22 mph39%30.27 "Hg9 mi
Weather by CustomWeather, © 2015

See weather overviewHow to use our weather pages